Regional Weather Roundup
Issued by NWS Sioux Falls, SD

Home | Current Version | Previous Version | Graphics & Text | Print | Product List | Glossary On
Versions: 1 2 3 4 5 6 7 8 9 10 11 12 13 14 15 16 17 18 19 20 21 22 23 24 25 26 27 28 29 30 31 32 33 34 35 36 37 38 39 40 41 42 43 44 45 46 47 48 49 50
026
ASUS43 KFSD 272110
RWRFSD

WEATHER ROUNDUP FOR SE SOUTH DAKOTA/SW MINNESOTA/NW IOWA
NATIONAL WEATHER SERVICE SIOUX FALLS SD
400 PM CDT TUE JUN 27 2017

NOTE: "FAIR" INDICATES FEW OR NO CLOUDS BELOW 12,000 FEET WITH NO
SIGNIFICANT WEATHER AND OR OBSTRUCTIONS TO VISIBILITY.


SDZ038>040-050-052>070-272200-
SOUTHEAST SOUTH DAKOTA

CITY           SKY/WX    TMP DP  RH WIND       PRES   REMARKS
BROOKINGS      SUNNY     76  49  38 S20G28    29.80F
CHAMBERLAIN    SUNNY     88  62  41 SE28      29.66F
HURON          MOSUNNY   80  50  34 S25G40    29.70F
MADISON        FAIR      75  50  41 S24G36    29.80F
MITCHELL       MOSUNNY   81  54  39 S25G35    29.73F
SIOUX FALLS    MOSUNNY   78  56  46 S23G30    29.81F
WINNER         FAIR      90  60  36 S31G38    29.66F
YANKTON        SUNNY     82  58  43 SE26G32   29.77F
$$

MNZ071-072-080-081-089-090-097-098-272200-
SOUTHWEST MINNESOTA

CITY           SKY/WX    TMP DP  RH WIND       PRES   REMARKS
FAIRMONT       SUNNY     76  44  32 S17G26    29.93F
JACKSON        SUNNY     75  41  29 S17G23    29.93F
LUVERNE        SUNNY     75  43  31 S20G26    29.86F
MARSHALL       SUNNY     79  46  31 S21G30    29.84F
MONTEVIDEO     MOSUNNY   77  45  31 SW12G22   29.83F
PIPESTONE      SUNNY     79  43  27 S21       29.84F
REDWOOD FALLS  CLOUDY    80  42  25 S25G32    29.87F
TRACY          SUNNY     78  45  31 S15G26    29.87F
WINDOM         SUNNY     79  41  25 S17G28    29.91F
WORTHINGTON    SUNNY     76  46  34 S18G28    29.90F
$$

IAZ001>003-012>014-020>022-031-032-NEZ013-014-SDZ071-272200-
NORTHWEST IOWA

CITY           SKY/WX    TMP DP  RH WIND       PRES   REMARKS
CHEROKEE       SUNNY     78  51  39 S13G22    29.89F
DENISON        SUNNY     79  59  50 S17       29.93F
ESTHERVILLE    SUNNY     75  47  36 S24G30    29.92F
LE MARS        SUNNY     79  54  41 S18G29    29.86F
ORANGE CITY    SUNNY     79  52  38 S16G25    29.87F
SHELDON        SUNNY     79  48  34 S17G26    29.87F
SIOUX CITY     SUNNY     81  59  47 S17G28    29.86F
SPENCER        SUNNY     80  44  27 S23G29    29.91F
STORM LAKE     SUNNY     77  50  38 S20G30    29.92F
$$

ABBREVIATIONS USED IN REMARKS
   TC - TEMPERATURE IN CELSIUS
  WCI - WIND CHILL INDEX
   HX - HEAT INDEX
  VSB - VISIBILITY





USA.gov is the U.S. government's official web portal to all federal, state and local government web resources and services.